Weather History for Logan, UT

Change the Weather History Date:

Monday, February 4, 2013

  Actual Average Record
Temperature  
Mean Temperature 17 °F -  
Max Temperature 24 °F 32 °F 56 °F (1965)
Min Temperature 10 °F 11 °F -19 °F (1979)
Degree Days  
Heating Degree Days 48    
Moisture  
Dew Point 12 °F    
Average Humidity 87    
Maximum Humidity 93    
Minimum Humidity 79    
Precipitation  
Precipitation 0.00 in - - ()
Sea Level Pressure  
Sea Level Pressure 30.31 in    
Wind  
Wind Speed 1 mph (West)    
Max Wind Speed 9 mph    
Max Gust Speed -    
Visibility 2 miles    
Events Fog    
Averages and records for this station are not official NWS values.
T = Trace of Precipitation, MM = Missing Value Source: NWS Daily Summary

Daily Weather History Graph

Daily Weather History Graph

Search for Another Location

Airport:

Trip Planner

Search our weather history database for the weather conditions in past years. The results will help you decide how hot, cold, wet, or windy it might be!

Date:

Astronomy

Feb. 04, 2013 Rise Set
Actual Time 7:36 AM MST 5:47 PM MST
Civil Twilight 7:06 AM MST 6:16 PM MST
Nautical Twilight 6:33 AM MST 6:49 PM MST
Astronomical Twilight 6:01 AM MST 7:22 PM MST
Moon 2:17 AM MST (2/4) 12:12 PM MST (2/4)
Length of Visible Light 11h 09m
Length of Day
10h 10m
Last Quarter, 36% of the Moon is Illuminated
Feb 4
Last Quarter
Feb 10
New
Feb 17
First Quarter
Feb 25
Full
Mar 4
Last Quarter

Hourly Weather History & Observations

Time (MST) Temp. Windchill Dew Point Humidity Pressure Visibility Wind Dir Wind Speed Gust Speed Precip Events Conditions
12:51 AM 14.0 °F - 10.9 °F 88% 30.38 in 0.2 mi Calm Calm - N/A Fog Light Freezing Fog
1:51 AM 14.0 °F - 10.9 °F 88% 30.38 in 0.2 mi Calm Calm - N/A Fog Light Freezing Fog
4:51 AM 12.9 °F - 10.0 °F 88% 30.38 in 0.2 mi Calm Calm - N/A Fog Light Freezing Fog
5:51 AM 12.9 °F - 10.0 °F 88% 30.39 in 0.5 mi Calm Calm - N/A Fog Light Freezing Fog
6:45 AM 14.0 °F - 10.4 °F 86% 30.23 in 1.2 mi Calm Calm - N/A   Overcast
6:51 AM 14.0 °F - 10.9 °F 88% 30.38 in 1.5 mi Calm Calm - N/A   Overcast
7:36 AM 15.8 °F - 10.4 °F 79% 30.24 in 2.0 mi Calm Calm - N/A   Overcast
7:51 AM 12.9 °F - 10.0 °F 88% 30.39 in 2.0 mi Calm Calm - N/A   Overcast
7:58 AM 14.0 °F 6.5 °F 10.4 °F 86% 30.24 in 1.8 mi WSW 4.6 mph - N/A   Overcast
8:09 AM 12.2 °F 4.3 °F 8.6 °F 85% 30.24 in 2.0 mi West 4.6 mph - N/A   Overcast
8:21 AM 12.2 °F 4.3 °F 8.6 °F 85% 30.25 in 1.8 mi WSW 4.6 mph - N/A   Overcast
8:49 AM 12.2 °F 6.1 °F 8.6 °F 85% 30.25 in 2.0 mi WSW 3.5 mph - N/A   Haze
8:51 AM 12.9 °F 6.9 °F 9.0 °F 84% 30.41 in 2.0 mi WSW 3.5 mph - N/A   Overcast
9:16 AM 12.2 °F 4.3 °F 8.6 °F 85% 30.25 in 2.5 mi WSW 4.6 mph - N/A   Mostly Cloudy
9:36 AM 14.0 °F - 12.2 °F 93% 30.25 in 3.0 mi Calm Calm - N/A   Mostly Cloudy
9:48 AM 15.8 °F - 14.0 °F 93% 30.24 in 2.5 mi Calm Calm - N/A   Mostly Cloudy
9:51 AM 16.0 °F - 12.9 °F 88% 30.39 in 2.5 mi Calm Calm - N/A   Mostly Cloudy
9:57 AM 15.8 °F - 14.0 °F 93% 30.24 in 2.5 mi Calm Calm - N/A   Mostly Cloudy
10:00 AM 17.6 °F - 14.0 °F 86% 30.24 in 3.0 mi Calm Calm - N/A   Mostly Cloudy
10:51 AM 21.0 °F - 16.0 °F 81% 30.39 in 3.0 mi Calm Calm - N/A   Haze
11:51 AM 19.9 °F - 17.1 °F 89% 30.39 in 3.0 mi Calm Calm - N/A   Overcast
12:51 PM 21.9 °F 17.2 °F 17.1 °F 82% 30.37 in 4.0 mi NNW 3.5 mph - N/A   Haze
1:51 PM 23.0 °F - 19.0 °F 85% 30.35 in 4.0 mi Calm Calm - N/A   Mostly Cloudy
2:51 PM 23.0 °F 18.4 °F 19.0 °F 85% 30.34 in 4.0 mi West 3.5 mph - N/A   Overcast
3:51 PM 24.1 °F - 19.9 °F 84% 30.31 in 4.0 mi Calm Calm - N/A   Overcast
4:51 PM 24.1 °F - 19.0 °F 81% 30.31 in 4.0 mi Calm Calm - N/A   Haze
5:51 PM 19.0 °F - 16.0 °F 88% 30.32 in 3.0 mi Calm Calm - N/A   Partly Cloudy
6:51 PM 16.0 °F 10.4 °F 12.9 °F 88% 30.33 in 4.0 mi North 3.5 mph - N/A   Clear
7:51 PM 15.1 °F - 10.9 °F 84% 30.36 in 4.0 mi Calm Calm - N/A   Clear
8:51 PM 12.9 °F 6.9 °F 10.9 °F 92% 30.37 in 3.0 mi SW 3.5 mph - N/A   Clear
9:04 PM 12.2 °F 2.9 °F 10.4 °F 92% 30.20 in 2.0 mi SW 5.8 mph - N/A   Clear
9:51 PM 12.9 °F - 10.0 °F 88% 30.34 in 1.5 mi Calm Calm - N/A   Partly Cloudy
10:26 PM 10.4 °F -2.4 °F 8.6 °F 92% 30.18 in 2.0 mi NNW 9.2 mph - N/A   Clear
10:42 PM 10.4 °F -2.4 °F 8.6 °F 92% 30.18 in 3.0 mi North 9.2 mph - N/A   Clear
10:51 PM 12.0 °F 0.5 °F 10.0 °F 92% 30.32 in 3.0 mi North 8.1 mph - N/A   Clear
11:51 PM 17.1 °F 10.0 °F 14.0 °F 88% 30.32 in 4.0 mi SSW 4.6 mph - N/A   Scattered Clouds